Time,TemperatureF,DewpointF,PressureIn,WindDirection,WindDirectionDegrees,WindSpeedMPH,WindSpeedGustMPH,Humidity,HourlyPrecipIn,Conditions,Clouds,dailyrainin,SoftwareType,DateUTC
2013-01-31 00:00:00,71.3,66.9,29.85,SSE,161,15.0,31.0,86,0.00,,,0.00,Wunderground v.1.15,2013-01-31 05:00:00,
2013-01-31 00:10:00,71.3,66.6,29.85,SSE,154,19.0,19.0,85,0.00,,,0.00,Wunderground v.1.15,2013-01-31 05:10:00,
2013-01-31 00:15:00,71.3,66.6,29.85,SSW,197,16.0,19.0,85,0.00,,,0.00,Wunderground v.1.15,2013-01-31 05:15:00,
2013-01-31 00:20:00,71.3,66.6,29.85,SSE,165,15.0,15.0,85,0.00,,,0.00,Wunderground v.1.15,2013-01-31 05:20:00,
2013-01-31 00:30:00,71.3,66.6,29.85,South,181,14.0,28.0,85,0.00,,,0.00,Wunderground v.1.15,2013-01-31 05:30:00,
2013-01-31 00:35:00,71.5,66.8,29.85,South,176,15.0,28.0,85,0.00,,,0.00,Wunderground v.1.15,2013-01-31 05:35:00,
2013-01-31 00:45:00,71.3,66.6,29.85,SSW,193,16.0,16.0,85,0.00,,,0.00,Wunderground v.1.15,2013-01-31 05:45:00,
2013-01-31 00:55:00,71.3,66.6,29.85,South,180,15.0,17.0,85,0.00,,,0.00,Wunderground v.1.15,2013-01-31 05:55:00,
2013-01-31 01:00:00,71.3,66.9,29.85,SSW,200,15.0,15.0,86,0.00,,,0.00,Wunderground v.1.15,2013-01-31 06:00:00,
2013-01-31 01:05:00,68.8,63.1,29.85,NNW,329,21.0,21.0,82,0.00,,,0.00,Wunderground v.1.15,2013-01-31 06:05:00,
2013-01-31 01:10:00,65.3,61.3,29.85,West,277,29.0,33.0,87,0.00,,,0.00,Wunderground v.1.15,2013-01-31 06:10:00,
2013-01-31 01:15:00,63.9,60.3,29.91,NW,322,32.0,33.0,88,0.00,,,0.00,Wunderground v.1.15,2013-01-31 06:15:00,
2013-01-31 01:20:00,63.2,60.2,29.91,NW,312,29.0,33.0,90,0.00,,,0.00,Wunderground v.1.15,2013-01-31 06:20:00,
2013-01-31 01:25:00,62.0,58.7,29.91,WNW,301,33.0,46.0,89,0.00,,,0.00,Wunderground v.1.15,2013-01-31 06:25:00,
2013-01-31 01:35:00,61.3,58.3,29.91,NNW,337,25.0,34.0,90,0.00,,,0.00,Wunderground v.1.15,2013-01-31 06:35:00,
2013-01-31 01:45:00,60.7,57.4,29.91,NW,309,24.0,30.0,89,0.00,,,0.00,Wunderground v.1.15,2013-01-31 06:45:00,
2013-01-31 01:55:00,61.2,58.2,29.91,NNW,333,17.0,30.0,90,0.00,,,0.00,Wunderground v.1.15,2013-01-31 06:55:00,
2013-01-31 02:05:00,60.1,56.8,29.91,NW,321,21.0,30.0,89,0.00,,,0.00,Wunderground v.1.15,2013-01-31 07:05:00,
2013-01-31 02:10:00,60.2,57.3,29.91,NNW,332,20.0,20.0,90,0.00,,,0.00,Wunderground v.1.15,2013-01-31 07:10:00,
2013-01-31 02:20:00,60.2,57.6,29.91,WNW,300,16.0,16.0,91,0.00,,,0.00,Wunderground v.1.15,2013-01-31 07:20:00,
2013-01-31 02:30:00,60.1,57.5,29.91,NW,304,17.0,30.0,91,0.00,,,0.01,Wunderground v.1.15,2013-01-31 07:30:00,
2013-01-31 02:35:00,60.2,57.9,29.91,North,350,19.0,30.0,92,0.00,,,0.01,Wunderground v.1.15,2013-01-31 07:35:00,
2013-01-31 02:45:00,60.4,58.4,29.92,NNW,327,18.0,30.0,93,0.00,,,0.01,Wunderground v.1.15,2013-01-31 07:45:00,
2013-01-31 02:55:00,60.4,58.7,29.92,West,272,13.0,30.0,94,0.04,,,0.02,Wunderground v.1.15,2013-01-31 07:55:00,
2013-01-31 03:05:00,59.5,57.2,29.91,North,356,11.0,11.0,92,0.00,,,0.02,Wunderground v.1.15,2013-01-31 08:05:00,
2013-01-31 03:10:00,59.6,57.3,29.91,North,353,8.0,8.0,92,0.00,,,0.02,Wunderground v.1.15,2013-01-31 08:10:00,
2013-01-31 03:20:00,59.8,57.5,29.91,NNW,345,2.0,2.0,92,0.00,,,0.02,Wunderground v.1.15,2013-01-31 08:20:00,
2013-01-31 03:30:00,60.2,58.2,29.91,NNW,327,4.0,4.0,93,0.00,,,0.02,Wunderground v.1.15,2013-01-31 08:30:00,
2013-01-31 03:40:00,60.5,58.8,29.91,North,0,4.0,4.0,94,0.00,,,0.02,Wunderground v.1.15,2013-01-31 08:40:00,
2013-01-31 03:45:00,60.5,58.8,29.91,North,357,3.0,9.0,94,0.00,,,0.02,Wunderground v.1.15,2013-01-31 08:45:00,
2013-01-31 03:55:00,60.5,58.8,29.91,North,0,2.0,6.0,94,0.00,,,0.02,Wunderground v.1.15,2013-01-31 08:55:00,
2013-01-31 04:00:00,60.5,58.8,29.91,North,358,3.0,3.0,94,0.00,,,0.02,Wunderground v.1.15,2013-01-31 09:00:00,
2013-01-31 04:10:00,60.4,58.7,29.91,NNW,348,2.0,22.0,94,0.00,,,0.02,Wunderground v.1.15,2013-01-31 09:10:00,
2013-01-31 04:20:00,60.5,58.8,29.92,North,354,3.0,22.0,94,0.00,,,0.02,Wunderground v.1.15,2013-01-31 09:20:00,
2013-01-31 04:25:00,60.5,58.8,29.92,North,358,2.0,22.0,94,0.00,,,0.02,Wunderground v.1.15,2013-01-31 09:25:00,
2013-01-31 04:35:00,60.7,59.0,29.92,North,0,3.0,22.0,94,0.00,,,0.02,Wunderground v.1.15,2013-01-31 09:35:00,
2013-01-31 04:40:00,60.9,59.2,29.92,North,351,4.0,4.0,94,0.00,,,0.02,Wunderground v.1.15,2013-01-31 09:40:00,
2013-01-31 04:50:00,60.9,59.2,29.92,NNW,330,2.0,22.0,94,0.00,,,0.02,Wunderground v.1.15,2013-01-31 09:50:00,
2013-01-31 05:00:00,60.9,59.2,29.93,NNW,345,2.0,2.0,94,0.00,,,0.02,Wunderground v.1.15,2013-01-31 10:00:00,
2013-01-31 05:05:00,61.0,59.3,29.93,NNW,342,2.0,22.0,94,0.00,,,0.02,Wunderground v.1.15,2013-01-31 10:05:00,
2013-01-31 05:15:00,60.7,59.0,29.93,NW,326,5.0,22.0,94,0.00,,,0.02,Wunderground v.1.15,2013-01-31 10:15:00,
2013-01-31 05:20:00,60.9,59.2,29.93,NNW,346,6.0,6.0,94,0.00,,,0.02,Wunderground v.1.15,2013-01-31 10:20:00,
2013-01-31 05:30:00,60.9,58.9,29.94,NNW,336,7.0,22.0,93,0.00,,,0.02,Wunderground v.1.15,2013-01-31 10:30:00,
2013-01-31 05:40:00,61.0,58.7,29.94,NNW,336,6.0,6.0,92,0.00,,,0.02,Wunderground v.1.15,2013-01-31 10:40:00,
2013-01-31 05:45:00,61.0,58.7,29.94,NNW,340,5.0,22.0,92,0.00,,,0.02,Wunderground v.1.15,2013-01-31 10:45:00,
2013-01-31 05:55:00,60.9,57.9,29.94,NNW,347,11.0,22.0,90,0.00,,,0.02,Wunderground v.1.15,2013-01-31 10:55:00,
2013-01-31 06:00:00,61.0,57.7,29.95,NW,316,11.0,11.0,89,0.00,,,0.02,Wunderground v.1.15,2013-01-31 11:00:00,
2013-01-31 06:10:00,61.0,57.1,29.95,NNW,343,11.0,11.0,87,0.00,,,0.02,Wunderground v.1.15,2013-01-31 11:10:00,
2013-01-31 06:20:00,61.2,56.7,29.95,North,352,13.0,13.0,85,0.00,,,0.02,Wunderground v.1.15,2013-01-31 11:20:00,
2013-01-31 06:25:00,61.3,56.4,29.95,North,349,14.0,14.0,84,0.00,,,0.02,Wunderground v.1.15,2013-01-31 11:25:00,
2013-01-31 06:35:00,61.3,55.8,29.97,North,0,13.0,25.0,82,0.00,,,0.02,Wunderground v.1.15,2013-01-31 11:35:00,
2013-01-31 06:45:00,61.5,55.6,29.98,NNW,338,14.0,17.0,81,0.00,,,0.02,Wunderground v.1.15,2013-01-31 11:45:00,
2013-01-31 06:50:00,61.3,54.4,29.98,NNW,333,15.0,15.0,78,0.00,,,0.02,Wunderground v.1.15,2013-01-31 11:50:00,
2013-01-31 07:00:00,61.3,53.3,29.98,NNW,338,17.0,17.0,75,0.00,,,0.02,Wunderground v.1.15,2013-01-31 12:00:00,
2013-01-31 07:05:00,61.2,53.2,29.98,North,356,17.0,28.0,75,0.00,,,0.02,Wunderground v.1.15,2013-01-31 12:05:00,
2013-01-31 07:15:00,60.9,52.6,29.99,NNW,347,15.0,28.0,74,0.00,,,0.02,Wunderground v.1.15,2013-01-31 12:15:00,
2013-01-31 07:25:00,60.5,51.4,29.99,NW,323,16.0,30.0,72,0.00,,,0.02,Wunderground v.1.15,2013-01-31 12:25:00,
2013-01-31 07:30:00,60.5,50.7,30.00,NNW,345,18.0,28.0,70,0.00,,,0.02,Wunderground v.1.15,2013-01-31 12:30:00,
2013-01-31 07:40:00,60.7,51.6,30.00,NNW,342,18.0,28.0,72,0.00,,,0.02,Wunderground v.1.15,2013-01-31 12:40:00,
2013-01-31 07:50:00,60.4,51.7,30.00,NNW,334,15.0,28.0,73,0.00,,,0.02,Wunderground v.1.15,2013-01-31 12:50:00,
2013-01-31 07:55:00,60.2,51.1,30.00,NW,322,15.0,28.0,72,0.00,,,0.02,Wunderground v.1.15,2013-01-31 12:55:00,
2013-01-31 08:05:00,60.4,51.0,30.01,NNW,346,17.0,21.0,71,0.00,,,0.02,Wunderground v.1.15,2013-01-31 13:05:00,
2013-01-31 08:15:00,60.5,51.8,30.02,NW,325,16.0,23.0,73,0.00,,,0.02,Wunderground v.1.15,2013-01-31 13:15:00,
2013-01-31 08:25:00,60.1,51.4,30.02,NW,313,16.0,28.0,73,0.00,,,0.02,Wunderground v.1.15,2013-01-31 13:25:00,
2013-01-31 08:30:00,59.8,51.1,30.03,NW,323,18.0,28.0,73,0.00,,,0.02,Wunderground v.1.15,2013-01-31 13:30:00,
2013-01-31 08:40:00,59.5,49.3,30.03,North,0,16.0,16.0,69,0.00,,,0.02,Wunderground v.1.15,2013-01-31 13:40:00,
2013-01-31 08:45:00,59.6,48.2,30.04,NNW,328,14.0,28.0,66,0.00,,,0.02,Wunderground v.1.15,2013-01-31 13:45:00,
2013-01-31 08:55:00,59.2,46.2,30.04,NNW,342,13.0,20.0,62,0.00,,,0.02,Wunderground v.1.15,2013-01-31 13:55:00,
2013-01-31 09:05:00,59.3,45.4,30.05,NNW,330,19.0,28.0,60,0.00,,,0.02,Wunderground v.1.15,2013-01-31 14:05:00,
2013-01-31 09:10:00,59.6,45.2,30.05,North,354,18.0,19.0,59,0.00,,,0.02,Wunderground v.1.15,2013-01-31 14:10:00,
2013-01-31 09:20:00,59.8,45.9,30.05,North,0,13.0,13.0,60,0.00,,,0.02,Wunderground v.1.15,2013-01-31 14:20:00,
2013-01-31 09:30:00,59.6,46.6,30.06,North,358,17.0,17.0,62,0.00,,,0.02,Wunderground v.1.15,2013-01-31 14:30:00,
2013-01-31 09:40:00,59.9,45.5,30.06,NNW,343,15.0,20.0,59,0.00,,,0.02,Wunderground v.1.15,2013-01-31 14:40:00,
2013-01-31 09:45:00,60.4,46.4,30.06,North,349,12.0,20.0,60,0.00,,,0.02,Wunderground v.1.15,2013-01-31 14:45:00,
2013-01-31 09:55:00,60.4,44.6,30.06,NNW,348,14.0,14.0,56,0.00,,,0.02,Wunderground v.1.15,2013-01-31 14:55:00,
2013-01-31 10:00:00,60.2,45.4,30.07,NNW,337,16.0,28.0,58,0.00,,,0.02,Wunderground v.1.15,2013-01-31 15:00:00,
2013-01-31 10:10:00,59.6,46.6,30.07,North,352,21.0,21.0,62,0.00,,,0.02,Wunderground v.1.15,2013-01-31 15:10:00,
2013-01-31 10:20:00,60.1,45.3,30.08,North,0,15.0,15.0,58,0.00,,,0.02,Wunderground v.1.15,2013-01-31 15:20:00,
2013-01-31 10:30:00,59.9,43.7,30.08,NW,311,17.0,34.0,55,0.00,,,0.02,Wunderground v.1.15,2013-01-31 15:30:00,
2013-01-31 10:35:00,60.1,41.9,30.08,North,356,15.0,34.0,51,0.00,,,0.02,Wunderground v.1.15,2013-01-31 15:35:00,
2013-01-31 10:45:00,60.2,44.4,30.08,NW,316,14.0,25.0,56,0.00,,,0.02,Wunderground v.1.15,2013-01-31 15:45:00,
2013-01-31 10:50:00,60.1,45.7,30.08,NW,314,15.0,34.0,59,0.00,,,0.02,Wunderground v.1.15,2013-01-31 15:50:00,
2013-01-31 11:00:00,59.9,45.1,30.08,North,353,14.0,14.0,58,0.00,,,0.02,Wunderground v.1.15,2013-01-31 16:00:00,
2013-01-31 11:10:00,60.4,41.1,30.08,North,0,12.0,12.0,49,0.00,,,0.02,Wunderground v.1.15,2013-01-31 16:10:00,
2013-01-31 11:15:00,60.5,41.2,30.08,NW,314,11.0,21.0,49,0.00,,,0.02,Wunderground v.1.15,2013-01-31 16:15:00,
2013-01-31 11:25:00,60.4,43.7,30.08,NNW,330,13.0,34.0,54,0.00,,,0.02,Wunderground v.1.15,2013-01-31 16:25:00,
2013-01-31 11:35:00,60.9,45.6,30.08,NNW,334,11.0,15.0,57,0.00,,,0.02,Wunderground v.1.15,2013-01-31 16:35:00,
2013-01-31 11:40:00,61.2,45.4,30.08,North,1,10.0,34.0,56,0.00,,,0.02,Wunderground v.1.15,2013-01-31 16:40:00,
2013-01-31 11:50:00,60.4,42.7,30.08,NNW,330,15.0,34.0,52,0.00,,,0.02,Wunderground v.1.15,2013-01-31 16:50:00,
2013-01-31 11:55:00,60.7,42.5,30.08,NW,326,12.0,34.0,51,0.00,,,0.02,Wunderground v.1.15,2013-01-31 16:55:00,
2013-01-31 12:05:00,60.7,42.5,30.08,NNE,19,13.0,24.0,51,0.00,,,0.02,Wunderground v.1.15,2013-01-31 17:05:00,
2013-01-31 12:15:00,60.2,43.5,30.08,NW,319,16.0,24.0,54,0.00,,,0.02,Wunderground v.1.15,2013-01-31 17:15:00,
2013-01-31 12:20:00,59.6,42.4,30.08,NNE,18,18.0,18.0,53,0.00,,,0.02,Wunderground v.1.15,2013-01-31 17:20:00,
2013-01-31 12:30:00,59.9,42.2,30.08,NNE,24,13.0,13.0,52,0.00,,,0.02,Wunderground v.1.15,2013-01-31 17:30:00,
2013-01-31 12:35:00,59.8,41.1,30.08,NNE,15,14.0,14.0,50,0.00,,,0.02,Wunderground v.1.15,2013-01-31 17:35:00,
2013-01-31 12:45:00,59.0,36.5,30.08,NNW,333,19.0,30.0,43,0.00,,,0.02,Wunderground v.1.15,2013-01-31 17:45:00,
2013-01-31 12:55:00,59.5,35.1,30.08,NNW,347,16.0,19.0,40,0.00,,,0.02,Wunderground v.1.15,2013-01-31 17:55:00,
2013-01-31 13:05:00,59.2,34.2,30.08,NNW,337,18.0,20.0,39,0.00,,,0.02,Wunderground v.1.15,2013-01-31 18:05:00,
2013-01-31 13:10:00,59.5,34.5,30.08,NNW,336,16.0,16.0,39,0.00,,,0.02,Wunderground v.1.15,2013-01-31 18:10:00,
2013-01-31 13:20:00,59.3,33.0,30.08,NNE,23,18.0,33.0,37,0.00,,,0.02,Wunderground v.1.15,2013-01-31 18:20:00,
2013-01-31 13:30:00,59.5,32.5,30.08,NNW,327,16.0,33.0,36,0.00,,,0.02,Wunderground v.1.15,2013-01-31 18:30:00,
2013-01-31 13:35:00,59.6,33.3,30.08,North,355,17.0,33.0,37,0.00,,,0.02,Wunderground v.1.15,2013-01-31 18:35:00,
2013-01-31 13:45:00,60.1,33.0,30.08,North,356,14.0,22.0,36,0.00,,,0.02,Wunderground v.1.15,2013-01-31 18:45:00,
2013-01-31 13:50:00,59.9,34.2,30.08,North,355,15.0,15.0,38,0.00,,,0.02,Wunderground v.1.15,2013-01-31 18:50:00,
2013-01-31 14:00:00,60.1,33.7,30.07,North,358,15.0,15.0,37,0.00,,,0.02,Wunderground v.1.15,2013-01-31 19:00:00,
2013-01-31 14:10:00,59.8,34.8,30.07,NNW,338,16.0,16.0,39,0.00,,,0.02,Wunderground v.1.15,2013-01-31 19:10:00,
2013-01-31 14:20:00,59.2,33.6,30.08,North,0,16.0,16.0,38,0.00,,,0.02,Wunderground v.1.15,2013-01-31 19:20:00,
2013-01-31 14:25:00,59.6,34.6,30.08,NW,323,16.0,23.0,39,0.00,,,0.02,Wunderground v.1.15,2013-01-31 19:25:00,
2013-01-31 14:35:00,60.1,34.4,30.08,NNW,331,14.0,33.0,38,0.00,,,0.02,Wunderground v.1.15,2013-01-31 19:35:00,
2013-01-31 14:40:00,60.1,35.7,30.08,NNW,348,15.0,15.0,40,0.00,,,0.02,Wunderground v.1.15,2013-01-31 19:40:00,
2013-01-31 14:50:00,59.8,35.4,30.08,NW,309,17.0,17.0,40,0.00,,,0.02,Wunderground v.1.15,2013-01-31 19:50:00,
2013-01-31 15:00:00,58.6,35.0,30.08,NW,319,21.0,33.0,41,0.00,,,0.02,Wunderground v.1.15,2013-01-31 20:00:00,
2013-01-31 15:05:00,59.0,35.9,30.08,NNW,328,23.0,33.0,42,0.00,,,0.02,Wunderground v.1.15,2013-01-31 20:05:00,
2013-01-31 15:15:00,58.9,35.8,30.08,NNW,331,19.0,20.0,42,0.00,,,0.02,Wunderground v.1.15,2013-01-31 20:15:00,
2013-01-31 15:25:00,59.6,36.5,30.08,NNW,328,16.0,27.0,42,0.00,,,0.02,Wunderground v.1.15,2013-01-31 20:25:00,
2013-01-31 15:30:00,59.3,33.7,30.09,NW,320,18.0,18.0,38,0.00,,,0.02,Wunderground v.1.15,2013-01-31 20:30:00,
2013-01-31 15:40:00,59.5,34.5,30.09,NW,326,15.0,20.0,39,0.00,,,0.02,Wunderground v.1.15,2013-01-31 20:40:00,
2013-01-31 15:50:00,59.3,32.3,30.09,NNW,328,17.0,21.0,36,0.00,,,0.02,Wunderground v.1.15,2013-01-31 20:50:00,
2013-01-31 15:55:00,59.6,33.9,30.09,NNW,335,15.0,21.0,38,0.00,,,0.02,Wunderground v.1.15,2013-01-31 20:55:00,
2013-01-31 16:05:00,59.3,30.9,30.08,NNW,328,17.0,38.0,34,0.00,,,0.02,Wunderground v.1.15,2013-01-31 21:05:00,
2013-01-31 16:10:00,59.3,33.0,30.08,NNE,32,18.0,18.0,37,0.00,,,0.02,Wunderground v.1.15,2013-01-31 21:10:00,
2013-01-31 16:20:00,59.6,34.6,30.08,North,355,12.0,38.0,39,0.00,,,0.02,Wunderground v.1.15,2013-01-31 21:20:00,
2013-01-31 16:30:00,59.6,35.2,30.08,NNW,332,12.0,38.0,40,0.00,,,0.02,Wunderground v.1.15,2013-01-31 21:30:00,
2013-01-31 16:35:00,59.5,34.5,30.08,North,0,14.0,38.0,39,0.00,,,0.02,Wunderground v.1.15,2013-01-31 21:35:00,
2013-01-31 16:45:00,59.6,32.6,30.09,NW,323,12.0,38.0,36,0.00,,,0.02,Wunderground v.1.15,2013-01-31 21:45:00,
2013-01-31 16:55:00,58.9,32.7,30.09,WNW,300,17.0,38.0,37,0.00,,,0.02,Wunderground v.1.15,2013-01-31 21:55:00,
2013-01-31 17:00:00,58.6,31.0,30.08,NNW,329,18.0,38.0,35,0.00,,,0.02,Wunderground v.1.15,2013-01-31 22:00:00,
2013-01-31 17:10:00,58.6,32.4,30.08,NNW,332,13.0,13.0,37,0.00,,,0.02,Wunderground v.1.15,2013-01-31 22:10:00,
2013-01-31 17:15:00,58.4,32.9,30.09,NNW,340,13.0,23.0,38,0.00,,,0.02,Wunderground v.1.15,2013-01-31 22:15:00,
2013-01-31 17:25:00,58.4,31.5,30.09,NW,326,14.0,38.0,36,0.00,,,0.02,Wunderground v.1.15,2013-01-31 22:25:00,
2013-01-31 17:35:00,58.1,31.3,30.09,NNW,329,12.0,18.0,36,0.00,,,0.02,Wunderground v.1.15,2013-01-31 22:35:00,
2013-01-31 17:45:00,57.5,34.6,30.09,NNW,331,13.0,38.0,42,0.00,,,0.02,Wunderground v.1.15,2013-01-31 22:45:00,
2013-01-31 17:50:00,57.3,29.9,30.09,NNW,337,13.0,38.0,35,0.00,,,0.02,Wunderground v.1.15,2013-01-31 22:50:00,
2013-01-31 18:00:00,57.0,32.9,30.09,North,349,6.0,38.0,40,0.00,,,0.02,Wunderground v.1.15,2013-01-31 23:00:00,
2013-01-31 18:05:00,56.7,31.4,30.09,North,354,4.0,38.0,38,0.00,,,0.02,Wunderground v.1.15,2013-01-31 23:05:00,
2013-01-31 18:15:00,56.0,32.0,30.09,NNW,328,4.0,13.0,40,0.00,,,0.02,Wunderground v.1.15,2013-01-31 23:15:00,
2013-01-31 18:25:00,55.7,32.9,30.09,NNW,347,10.0,11.0,42,0.00,,,0.02,Wunderground v.1.15,2013-01-31 23:25:00,
2013-01-31 18:35:00,55.4,33.8,30.10,NW,326,10.0,13.0,44,0.00,,,0.02,Wunderground v.1.15,2013-01-31 23:35:00,
2013-01-31 18:40:00,55.4,33.8,30.10,NNW,342,11.0,11.0,44,0.00,,,0.02,Wunderground v.1.15,2013-01-31 23:40:00,
2013-01-31 18:50:00,55.3,33.7,30.10,North,352,7.0,7.0,44,0.00,,,0.02,Wunderground v.1.15,2013-01-31 23:50:00,
2013-01-31 18:55:00,55.0,34.0,30.10,North,352,4.0,7.0,45,0.00,,,0.02,Wunderground v.1.15,2013-01-31 23:55:00,
2013-01-31 19:05:00,54.8,34.9,30.11,North,352,7.0,13.0,47,0.00,,,0.02,Wunderground v.1.15,2013-02-01 00:05:00,
2013-01-31 19:15:00,54.7,34.3,30.11,NNW,347,7.0,16.0,46,0.00,,,0.02,Wunderground v.1.15,2013-02-01 00:15:00,
2013-01-31 19:20:00,54.5,34.1,30.11,North,351,6.0,16.0,46,0.00,,,0.02,Wunderground v.1.15,2013-02-01 00:20:00,
2013-01-31 19:30:00,54.5,34.7,30.12,NNW,330,12.0,12.0,47,0.00,,,0.02,Wunderground v.1.15,2013-02-01 00:30:00,
2013-01-31 19:35:00,54.5,35.2,30.12,NNW,333,12.0,13.0,48,0.00,,,0.02,Wunderground v.1.15,2013-02-01 00:35:00,
2013-01-31 19:45:00,54.4,35.6,30.13,NNW,343,14.0,17.0,49,0.00,,,0.02,Wunderground v.1.15,2013-02-01 00:45:00,
2013-01-31 19:55:00,54.2,35.9,30.13,NNW,342,10.0,16.0,50,0.00,,,0.02,Wunderground v.1.15,2013-02-01 00:55:00,
2013-01-31 20:00:00,54.1,35.3,30.14,NNW,336,10.0,10.0,49,0.00,,,0.02,Wunderground v.1.15,2013-02-01 01:00:00,
2013-01-31 20:10:00,54.1,36.4,30.14,NNW,333,11.0,11.0,51,0.00,,,0.02,Wunderground v.1.15,2013-02-01 01:10:00,
2013-01-31 20:15:00,54.1,36.4,30.14,North,357,9.0,16.0,51,0.00,,,0.02,Wunderground v.1.15,2013-02-01 01:15:00,
2013-01-31 20:25:00,53.9,37.1,30.14,North,356,5.0,16.0,53,0.00,,,0.02,Wunderground v.1.15,2013-02-01 01:25:00,
2013-01-31 20:35:00,53.9,38.1,30.14,NNW,339,10.0,16.0,55,0.00,,,0.02,Wunderground v.1.15,2013-02-01 01:35:00,
2013-01-31 20:40:00,53.9,38.1,30.14,North,0,7.0,7.0,55,0.00,,,0.02,Wunderground v.1.15,2013-02-01 01:40:00,
2013-01-31 20:50:00,53.8,38.0,30.14,North,358,10.0,10.0,55,0.00,,,0.02,Wunderground v.1.15,2013-02-01 01:50:00,
2013-01-31 21:00:00,53.9,39.0,30.14,NNW,343,8.0,16.0,57,0.00,,,0.02,Wunderground v.1.15,2013-02-01 02:00:00,
2013-01-31 21:05:00,53.8,39.4,30.14,NW,326,8.0,16.0,58,0.00,,,0.02,Wunderground v.1.15,2013-02-01 02:05:00,
2013-01-31 21:15:00,53.8,39.4,30.14,NNW,347,7.0,13.0,58,0.00,,,0.02,Wunderground v.1.15,2013-02-01 02:15:00,
2013-01-31 21:25:00,53.8,39.4,30.14,NNW,327,8.0,15.0,58,0.00,,,0.02,Wunderground v.1.15,2013-02-01 02:25:00,
2013-01-31 21:30:00,53.8,39.4,30.15,North,0,9.0,10.0,58,0.00,,,0.02,Wunderground v.1.15,2013-02-01 02:30:00,
2013-01-31 21:40:00,53.6,39.2,30.15,North,356,7.0,7.0,58,0.00,,,0.02,Wunderground v.1.15,2013-02-01 02:40:00,
2013-01-31 21:50:00,53.6,39.6,30.15,NNW,342,8.0,16.0,59,0.00,,,0.02,Wunderground v.1.15,2013-02-01 02:50:00,
2013-01-31 21:55:00,53.8,39.4,30.15,North,353,10.0,16.0,58,0.00,,,0.02,Wunderground v.1.15,2013-02-01 02:55:00,
2013-01-31 22:05:00,53.8,39.4,30.15,North,358,9.0,16.0,58,0.00,,,0.02,Wunderground v.1.15,2013-02-01 03:05:00,
2013-01-31 22:15:00,53.8,39.4,30.15,NNW,331,8.0,16.0,58,0.00,,,0.02,Wunderground v.1.15,2013-02-01 03:15:00,
2013-01-31 22:20:00,53.8,39.4,30.15,NW,319,7.0,7.0,58,0.00,,,0.02,Wunderground v.1.15,2013-02-01 03:20:00,
2013-01-31 22:30:00,53.6,39.6,30.15,North,6,6.0,6.0,59,0.00,,,0.02,Wunderground v.1.15,2013-02-01 03:30:00,
2013-01-31 22:40:00,53.5,39.5,30.15,North,349,4.0,4.0,59,0.00,,,0.02,Wunderground v.1.15,2013-02-01 03:40:00,
2013-01-31 22:50:00,53.5,39.9,30.15,North,349,2.0,20.0,60,0.00,,,0.02,Wunderground v.1.15,2013-02-01 03:50:00,
2013-01-31 22:55:00,53.3,39.8,30.15,NNW,338,2.0,20.0,60,0.00,,,0.02,Wunderground v.1.15,2013-02-01 03:55:00,
2013-01-31 23:05:00,53.3,40.2,30.16,North,352,3.0,9.0,61,0.00,,,0.02,Wunderground v.1.15,2013-02-01 04:05:00,
2013-01-31 23:15:00,53.5,40.8,30.17,NNW,342,2.0,6.0,62,0.00,,,0.02,Wunderground v.1.15,2013-02-01 04:15:00,
2013-01-31 23:20:00,53.6,40.9,30.17,North,358,3.0,3.0,62,0.00,,,0.02,Wunderground v.1.15,2013-02-01 04:20:00,
2013-01-31 23:30:00,53.6,41.3,30.16,NNW,346,2.0,2.0,63,0.00,,,0.02,Wunderground v.1.15,2013-02-01 04:30:00,
2013-01-31 23:35:00,53.6,41.7,30.16,North,352,3.0,3.0,64,0.00,,,0.02,Wunderground v.1.15,2013-02-01 04:35:00,
2013-01-31 23:45:00,53.8,41.9,30.16,North,0,5.0,8.0,64,0.00,,,0.02,Wunderground v.1.15,2013-02-01 04:45:00,
2013-01-31 23:55:00,53.9,42.4,30.16,North,0,2.0,20.0,65,0.00,,,0.02,Wunderground v.1.15,2013-02-01 04:55:00,